Corning, AR

12:05 AM CDT on June 25, 2017 (GMT -0500)
Corning

Weather History for K4M9 - November, 2012

Change the Weather History Date:

Monday, November 26, 2012

  Actual Average (KARG) Record (KARG)
Temperature  
Mean Temperature 40 °F -  
Max Temperature 46 °F 53 °F 69 °F (1997)
Min Temperature 35 °F 36 °F 26 °F (2010)
Degree Days  
Heating Degree Days 24    
Moisture  
Dew Point 36 °F    
Average Humidity 83    
Maximum Humidity 93    
Minimum Humidity 75    
Precipitation  
Precipitation 0.14 in - - ()
Sea Level Pressure  
Sea Level Pressure 30.12 in    
Wind  
Wind Speed 7 mph (NE)    
Max Wind Speed 18 mph    
Max Gust Speed 30 mph    
Visibility 9 miles    
Events Rain    
Averages and records for this station are not official NWS values.
T = Trace of Precipitation, MM = Missing Value Source: NWS Daily Summary

Daily Weather History Graph

Daily Weather History Graph

Search for Another Location

Airport or City:

Trip Planner

Search our weather history database for the weather conditions in past years. The results will help you decide how hot, cold, wet, or windy it might be!

Date:

Astronomy

Nov. 26, 2012 Rise Set
Actual Time 6:51 AM CST 4:48 PM CST
Civil Twilight 6:23 AM CST 5:16 PM CST
Nautical Twilight 5:51 AM CST 5:48 PM CST
Astronomical Twilight 5:20 AM CST 6:19 PM CST
Moon 3:39 PM CST (11/26) 5:03 AM CST (11/26)
Length of Visible Light 10h 53m
Length of Day
9h 57m
Waxing Gibbous, 97% of the Moon is Illuminated
Nov 26
Waxing Gibbous
Nov 28
Full
Dec 6
Last Quarter
Dec 13
New
Dec 19
First Quarter

Hourly Weather History & Observations

Time (CST) Temp. Windchill Dew Point Humidity Pressure Visibility Wind Dir Wind Speed Gust Speed Precip Events Conditions
12:15 AM 39.2 °F 35.0 °F 32.0 °F 75% 30.03 in 10.0 mi SE 5.8 mph - N/A   Unknown
12:55 AM 37.4 °F 32.8 °F 32.0 °F 81% 30.02 in 10.0 mi ESE 5.8 mph - N/A   Unknown
1:15 AM 39.2 °F 35.9 °F 32.0 °F 75% 30.02 in 10.0 mi SE 4.6 mph - N/A   Unknown
1:35 AM 37.4 °F 33.8 °F 32.0 °F 81% 30.02 in 10.0 mi SE 4.6 mph - N/A   Unknown
1:55 AM 39.2 °F 37.0 °F 32.0 °F 75% 30.02 in 10.0 mi ESE 3.5 mph - N/A   Unknown
2:15 AM 39.2 °F 35.9 °F 32.0 °F 75% 30.02 in 10.0 mi ESE 4.6 mph - N/A   Unknown
2:35 AM 37.4 °F 34.9 °F 32.0 °F 81% 30.03 in 10.0 mi ESE 3.5 mph - N/A   Unknown
2:55 AM 39.2 °F - 32.0 °F 75% 30.03 in 10.0 mi Calm Calm - N/A   Unknown
3:15 AM 37.4 °F - 32.0 °F 81% 30.03 in 10.0 mi Calm Calm - N/A   Unknown
3:35 AM 37.4 °F - 32.0 °F 81% 30.03 in 10.0 mi Calm Calm - N/A   Unknown
3:55 AM 37.4 °F 34.9 °F 32.0 °F 81% 30.03 in 10.0 mi ESE 3.5 mph - N/A   Unknown
4:15 AM 37.4 °F 34.9 °F 32.0 °F 81% 30.03 in 10.0 mi East 3.5 mph - N/A   Unknown
4:35 AM 37.4 °F 34.9 °F 32.0 °F 81% 30.03 in 10.0 mi ENE 3.5 mph - N/A   Unknown
4:55 AM 37.4 °F 33.8 °F 32.0 °F 81% 30.04 in 10.0 mi NE 4.6 mph - N/A   Unknown
5:15 AM 35.6 °F 31.7 °F 32.0 °F 87% 30.04 in 10.0 mi NE 4.6 mph - N/A   Unknown
5:35 AM 35.6 °F 32.8 °F 32.0 °F 87% 30.05 in 10.0 mi ENE 3.5 mph - N/A   Unknown
5:55 AM 35.6 °F 32.8 °F 32.0 °F 87% 30.04 in 10.0 mi East 3.5 mph - N/A   Unknown
6:15 AM 35.6 °F 30.7 °F 32.0 °F 87% 30.04 in 10.0 mi East 5.8 mph - N/A   Unknown
6:35 AM 35.6 °F - 32.0 °F 87% 30.05 in 10.0 mi Calm Calm - N/A   Unknown
6:55 AM 37.4 °F - 32.0 °F 81% 30.05 in 10.0 mi Calm Calm - N/A   Unknown
7:15 AM 37.4 °F 33.8 °F 32.0 °F 81% 30.05 in 10.0 mi NE 4.6 mph - N/A   Unknown
7:35 AM 37.4 °F 31.4 °F 33.8 °F 87% 30.07 in 10.0 mi North 8.1 mph - N/A   Unknown
7:55 AM 39.2 °F 35.9 °F 35.6 °F 87% 30.07 in 10.0 mi NE 4.6 mph - N/A   Unknown
8:15 AM 39.2 °F 37.0 °F 35.6 °F 87% 30.07 in 10.0 mi North 3.5 mph - N/A   Unknown
8:35 AM 39.2 °F 35.0 °F 35.6 °F 87% 30.09 in 5.0 mi NNE 5.8 mph - N/A Rain Light Rain
8:55 AM 39.2 °F 35.9 °F 37.4 °F 93% 30.10 in 5.0 mi North 4.6 mph - 0.02 in Rain Light Rain
9:15 AM 41.0 °F 37.1 °F 37.4 °F 87% 30.09 in 9.0 mi NE 5.8 mph - N/A Rain Light Rain
9:55 AM 41.0 °F 35.2 °F 39.2 °F 93% 30.08 in 5.0 mi ENE 9.2 mph - 0.02 in Rain Light Rain
10:15 AM 42.8 °F 38.6 °F 39.2 °F 87% 30.09 in 10.0 mi NE 6.9 mph - N/A Rain Light Rain
10:35 AM 44.6 °F 39.2 °F 39.2 °F 81% 30.09 in 9.0 mi NE 10.4 mph - N/A Rain Light Rain
10:55 AM 44.6 °F 41.4 °F 39.2 °F 81% 30.10 in 9.0 mi NNE 5.8 mph - 0.01 in Rain Light Rain
11:15 AM 44.6 °F 42.2 °F 41.0 °F 87% 30.10 in 1.2 mi East 4.6 mph - 0.06 in Rain Rain
11:35 AM 44.6 °F 40.7 °F 41.0 °F 87% 30.08 in 9.0 mi NE 6.9 mph - 0.06 in Rain Light Rain
11:55 AM 46.4 °F 41.5 °F 41.0 °F 81% 30.08 in 10.0 mi NE 10.4 mph - 0.07 in Rain Light Rain
12:15 PM 44.6 °F 39.7 °F 41.0 °F 87% 30.08 in 8.0 mi NE 9.2 mph - N/A Rain Light Rain
12:35 PM 44.6 °F 38.8 °F 41.0 °F 87% 30.07 in 10.0 mi NE 11.5 mph - N/A   Unknown
12:55 PM 44.6 °F 38.8 °F 41.0 °F 87% 30.08 in 10.0 mi NNE 11.5 mph - N/A Rain Light Rain
1:15 PM 44.6 °F 38.8 °F 41.0 °F 87% 30.07 in 10.0 mi NNE 11.5 mph 17.3 mph N/A Rain Light Rain
1:35 PM 44.6 °F 38.1 °F 39.2 °F 81% 30.08 in 10.0 mi NNE 13.8 mph - N/A Rain Light Rain
1:55 PM 44.6 °F 38.4 °F 39.2 °F 81% 30.08 in 10.0 mi NE 12.7 mph - N/A Rain Light Rain
2:15 PM 44.6 °F 38.1 °F 37.4 °F 76% 30.08 in 10.0 mi NNE 13.8 mph - N/A Rain Light Rain
2:35 PM 44.6 °F 37.8 °F 39.2 °F 81% 30.08 in 10.0 mi NE 15.0 mph 19.6 mph N/A Rain Light Rain
2:55 PM 44.6 °F 37.4 °F 39.2 °F 81% 30.08 in 10.0 mi NE 16.1 mph - N/A   Unknown
3:15 PM 44.6 °F 38.4 °F 39.2 °F 81% 30.10 in 10.0 mi NE 12.7 mph - N/A Rain Light Rain
3:35 PM 44.6 °F 39.2 °F 39.2 °F 81% 30.11 in 9.0 mi NNE 10.4 mph - N/A   Unknown
3:55 PM 44.6 °F 39.7 °F 39.2 °F 81% 30.12 in 9.0 mi NNE 9.2 mph - N/A Rain Light Rain
4:15 PM 44.6 °F 39.2 °F 39.2 °F 81% 30.12 in 10.0 mi NNE 10.4 mph - N/A Rain Light Rain
4:35 PM 44.6 °F 39.7 °F 39.2 °F 81% 30.12 in 10.0 mi NNE 9.2 mph - N/A Rain Light Rain
4:55 PM 44.6 °F 38.8 °F 41.0 °F 87% 30.14 in 9.0 mi NNE 11.5 mph - N/A Rain Light Rain
5:15 PM 44.6 °F 37.4 °F 39.2 °F 81% 30.14 in 10.0 mi NNE 16.1 mph - N/A Rain Light Rain
5:35 PM 44.6 °F 38.1 °F 39.2 °F 81% 30.16 in 9.0 mi NNE 13.8 mph 23.0 mph N/A Rain Light Rain
5:55 PM 44.6 °F 39.7 °F 39.2 °F 81% 30.17 in 9.0 mi NNE 9.2 mph 17.3 mph N/A Rain Light Rain
6:15 PM 44.6 °F 39.2 °F 39.2 °F 81% 30.19 in 10.0 mi NNE 10.4 mph 16.1 mph N/A Rain Light Rain
6:35 PM 44.6 °F 37.8 °F 39.2 °F 81% 30.20 in 9.0 mi North 15.0 mph 19.6 mph N/A Rain Light Rain
6:55 PM 44.6 °F 37.8 °F 37.4 °F 76% 30.21 in 10.0 mi North 15.0 mph 21.9 mph N/A   Unknown
7:15 PM 42.8 °F 35.1 °F 37.4 °F 81% 30.23 in 10.0 mi North 16.1 mph 24.2 mph N/A   Unknown
7:35 PM 41.0 °F 32.5 °F 35.6 °F 81% 30.24 in 10.0 mi NNE 17.3 mph 29.9 mph N/A   Unknown
7:55 PM 41.0 °F 33.9 °F 33.8 °F 76% 30.25 in 10.0 mi North 12.7 mph 23.0 mph N/A   Unknown
8:15 PM 41.0 °F 32.2 °F 33.8 °F 76% 30.26 in 10.0 mi North 18.4 mph 25.3 mph N/A   Unknown
8:35 PM 39.2 °F 30.8 °F 35.6 °F 87% 30.26 in 9.0 mi NNE 15.0 mph 21.9 mph N/A   Unknown
8:55 PM 39.2 °F 31.6 °F 33.8 °F 81% 30.28 in 10.0 mi North 12.7 mph 23.0 mph N/A   Unknown
9:15 PM 39.2 °F 32.0 °F 35.6 °F 87% 30.29 in 7.0 mi North 11.5 mph 20.7 mph N/A Rain Light Rain
9:35 PM 39.2 °F 30.8 °F 35.6 °F 87% 30.29 in 7.0 mi NNE 15.0 mph 21.9 mph 0.01 in Rain Light Rain
9:55 PM 39.2 °F 32.5 °F 35.6 °F 87% 30.30 in 5.0 mi NNE 10.4 mph 18.4 mph 0.02 in Rain Light Rain
10:15 PM 39.2 °F 32.0 °F 35.6 °F 87% 30.29 in 8.0 mi North 11.5 mph 19.6 mph N/A   Unknown
10:35 PM 39.2 °F 31.6 °F 35.6 °F 87% 30.29 in 7.0 mi North 12.7 mph 16.1 mph N/A Rain Light Rain
10:55 PM 39.2 °F 32.0 °F 33.8 °F 81% 30.30 in 10.0 mi North 11.5 mph - N/A   Unknown
11:15 PM 39.2 °F 33.0 °F 33.8 °F 81% 30.30 in 10.0 mi North 9.2 mph - N/A   Unknown
11:35 PM 39.2 °F 33.0 °F 32.0 °F 75% 30.31 in 10.0 mi North 9.2 mph - N/A   Unknown
11:55 PM 39.2 °F 32.5 °F 32.0 °F 75% 30.30 in 10.0 mi North 10.4 mph - N/A   Unknown